Flag for U.S.A. Weather past 2 weeks in Kennebunk, Maine, U.S.A.

Now
36 °F

Low clouds.


Feels Like: 30 °F
Forecast: 39 / 53 °F
Wind: 7 mph from North

Location: Sanford Municipal

Current Time: Dec 24, 2014 at 10:04:34 PM

Latest Report: Dec 24, 2014 at 9:35 PM


Visibility: 10 mi

Pressure: 29.66 "Hg

Humidity: 93%

Dew point: 34 °F

Location of KennebunkLocation

Historic Weather in Kennebunk — Graph

°F

Kennebunk temperature yesterday

Maximum temperature yesterday: 39 °F (at 10:55 AM)
Minimum temperature yesterday: 32 °F (at 12:15 AM)
Average temperature yesterday: 35 °F

Past Weeks' High & Low Weather Summary

 TemperatureHumidityPressure
High43 °F (Dec 14, 12:35 PM)100% (Dec 11, 9:15 PM)30.42 "Hg (Dec 11, 9:15 PM)
Low18 °F (Dec 20, 3:35 AM)45% (Dec 19, 12:35 PM)29.43 "Hg (Dec 11, 12:55 AM)
Average33 °F76%29.95 "Hg
* Reported Dec 9 8:15 PM — Dec 24 8:55 PM, Kennebunk, Weather by CustomWeather, © 2014

Note: Actual official high and low records may vary slightly from our data, if they occured in-between our weather recording intervals... More about our weather records

Advertising

Kennebunk weather history for previous 24 hours

 ConditionsComfort  
Time TempWeatherWind HumidityBarometerVisibility
8:55 PM
Dec 24
36 °FLow clouds.7 mph81%29.68 "Hg10 mi
8:35 PM36 °FLow clouds.7 mph87%29.70 "Hg8 mi
8:15 PM36 °FLow clouds.6 mph93%29.72 "Hg4 mi
7:55 PM36 °FLow clouds.8 mph93%29.73 "Hg10 mi
7:35 PM36 °FLow clouds.8 mph87%29.75 "Hg10 mi
6:55 PM36 °FLow clouds.8 mph87%29.78 "Hg9 mi
6:35 PM36 °FLow clouds.7 mph87%29.79 "Hg7 mi
6:15 PM36 °FLow clouds.8 mph81%29.80 "Hg7 mi
5:55 PM36 °FLow clouds.7 mph81%29.81 "Hg9 mi
5:35 PM36 °FLow clouds.5 mph93%29.82 "Hg4 mi
5:15 PM36 °FLow clouds.6 mph93%29.82 "Hg6 mi
4:55 PM37 °FLow clouds.7 mph81%29.83 "Hg10 mi
4:35 PM37 °FLow clouds.7 mph81%29.84 "Hg6 mi
4:15 PM37 °FLow clouds.7 mph87%29.85 "Hg3 mi
3:55 PM37 °FLow clouds.8 mph87%29.86 "Hg2 mi
3:35 PM37 °FLow clouds.8 mph81%29.87 "Hg1 mi
3:15 PM37 °FLow clouds.7 mph81%29.88 "Hg1 mi
2:55 PM37 °FLow clouds.8 mph93%29.90 "Hg1 mi
2:35 PM37 °FLow clouds.7 mph87%29.92 "Hg1 mi
1:55 PM37 °FLow clouds.6 mph87%29.94 "Hg1 mi
1:35 PM37 °FLow clouds.7 mph87%29.95 "Hg1 mi
1:15 PM37 °FLow clouds.9 mph87%29.95 "Hg1 mi
12:55 PM37 °FLow clouds.7 mph87%29.96 "Hg1 mi
12:35 PM37 °FLow clouds.9 mph81%29.97 "Hg1 mi
12:15 PM37 °FLow clouds.9 mph81%29.98 "Hg1 mi
11:55 AM37 °FLow clouds.8 mph87%30.01 "Hg1 mi
11:35 AM37 °FLow clouds.8 mph93%30.03 "Hg1 mi
11:15 AM37 °FLow clouds.9 mph93%30.04 "Hg1 mi
10:55 AM37 °FLow clouds.8 mph87%30.06 "Hg1 mi
10:35 AM37 °FLow clouds.8 mph87%30.07 "Hg1 mi
10:15 AM37 °FLow clouds.8 mph87%30.08 "Hg1 mi
9:55 AM37 °FLow clouds.7 mph87%30.08 "Hg1 mi
9:35 AM36 °FLow clouds.7 mph93%30.10 "Hg1 mi
9:15 AM36 °FLow clouds.9 mph87%30.08 "Hg1 mi
8:55 AM36 °FLow clouds.7 mph87%30.08 "Hg1 mi
8:35 AM36 °FLow clouds.9 mph81%30.09 "Hg1 mi
8:15 AM36 °FLow clouds.7 mph81%30.11 "Hg1 mi
7:55 AM36 °FLow clouds.8 mph81%30.12 "Hg1 mi
7:35 AM36 °FLow clouds.9 mph81%30.13 "Hg1 mi
7:15 AM36 °FLow clouds.7 mph81%30.15 "Hg1 mi
6:55 AM36 °FLow clouds.7 mph81%30.15 "Hg2 mi
6:35 AM36 °FLow clouds.8 mph81%30.15 "Hg2 mi
6:15 AM36 °FLow clouds.10 mph81%30.14 "Hg2 mi
5:55 AM36 °FLow clouds.9 mph87%30.15 "Hg1 mi
5:35 AM36 °FLow clouds.10 mph93%30.14 "Hg2 mi
5:15 AM36 °FLow clouds.10 mph93%30.15 "Hg1 mi
4:55 AM36 °FLow clouds.7 mph93%30.16 "Hg2 mi
4:35 AM36 °FLow clouds.6 mph87%30.16 "Hg2 mi
4:15 AM36 °FLow clouds.7 mph87%30.16 "Hg1 mi
3:55 AM36 °FLow clouds.7 mph87%30.16 "Hg1 mi
3:35 AM36 °FLow clouds.9 mph81%30.16 "Hg2 mi
3:15 AM36 °FLow clouds.8 mph81%30.17 "Hg2 mi
2:55 AM36 °FLow clouds.7 mph81%30.18 "Hg2 mi
2:35 AM36 °FLow clouds.8 mph81%30.18 "Hg2 mi
2:15 AM36 °FLow clouds.13 mph81%30.18 "Hg2 mi
1:55 AM36 °FLow clouds.12 mph81%30.18 "Hg2 mi
1:35 AM36 °FLow clouds.9 mph81%30.18 "Hg3 mi
1:15 AM36 °FLow clouds.8 mph81%30.19 "Hg3 mi
12:55 AM36 °FLow clouds.8 mph81%30.19 "Hg2 mi
12:35 AM36 °FLow clouds.8 mph87%30.20 "Hg2 mi
12:15 AM36 °FLow clouds.8 mph87%30.21 "Hg2 mi
11:55 PM
Dec 23
36 °FLow clouds.7 mph81%30.21 "Hg2 mi
11:35 PM36 °FLow clouds.8 mph81%30.21 "Hg2 mi
11:15 PM36 °FLow clouds.9 mph81%30.21 "Hg2 mi
10:55 PM36 °FLow clouds.12 mph81%30.21 "Hg2 mi
10:15 PM36 °FLow clouds.9 mph75%30.22 "Hg1 mi
Weather by CustomWeather, © 2014

See weather overviewHow to use our weather pages